FW8226 Weather Reports


time (UTC)temp
C
wind
direction
speed
KPH
gust
KPH
rain 1hr
cm
rain 24hr
cm
rain mn
cm
humidity
%
barometer
mb
20260505070520 6 45 8.0 12.9 0.00 0.00 0.00 59 1009.5
20260505070016 6 43 9.7 12.9 0.00 0.00 0.00 59 1009.7
20260505065512 6 50 11.3 14.5 0.00 0.00 0.00 58 1009.7
20260505065009 6 39 11.3 12.9 0.00 0.00 0.00 58 1009.7
20260505064506 6 51 9.7 14.5 0.00 0.00 0.00 58 1009.7
20260505064004 6 48 6.4 8.0 0.00 0.00 0.00 59 1009.7
20260505063501 6 55 8.0 11.3 0.00 0.00 0.00 58 1009.7
20260505062957 6 52 11.3 14.5 0.00 0.00 0.00 58 1009.3
20260505062454 6 30 6.4 9.7 0.00 0.00 0.00 59 1009.6
20260505061951 6 47 9.7 16.1 0.00 0.00 0.00 59 1009.2
20260505061449 6 45 11.3 12.9 0.00 0.00 0.00 59 1009.5
20260505060946 6 47 11.3 12.9 0.00 0.00 0.00 58 1009.5
20260505060443 7 45 11.3 14.5 0.00 0.00 0.00 58 1009.3
20260505055939 7 38 9.7 12.9 0.00 0.00 0.00 58 1009.3
20260505055435 7 54 8.0 9.7 0.00 0.00 0.00 58 1009.4
20260505054932 7 47 11.3 16.1 0.00 0.00 0.00 58 1009.3
20260505054430 7 46 11.3 14.5 0.00 0.00 0.00 58 1009.0
20260505053928 7 46 12.9 16.1 0.00 0.00 0.00 57 1009.2
20260505053424 7 55 11.3 12.9 0.00 0.00 0.00 57 1009.0
20260505052921 7 51 12.9 14.5 0.00 0.00 0.00 57 1008.9
20260505052418 7 42 12.9 20.9 0.00 0.00 0.00 57 1008.9
20260505051915 7 52 11.3 14.5 0.00 0.00 0.00 57 1009.2
20260505051413 7 48 14.5 16.1 0.00 0.00 0.00 57 1009.0
20260505050911 8 55 12.9 14.5 0.00 0.00 0.00 57 1009.0
20260505050409 8 53 9.7 12.9 0.00 0.00 0.00 57 1009.4
20260505041336 8 47 8.0 12.9 0.00 0.00 0.00 54 1009.0
20260505040833 8 41 11.3 12.9 0.00 0.00 0.00 54 1009.0
20260505040331 8 51 12.9 14.5 0.00 0.00 0.00 54 1008.9
20260505035827 8 49 9.7 14.5 0.00 0.00 0.00 54 1008.8
20260505035323 9 41 12.9 16.1 0.00 0.00 0.00 54 1008.8
20260505034821 9 52 9.7 12.9 0.00 0.00 0.00 53 1008.7
20260505034317 9 56 14.5 17.7 0.00 0.00 0.00 53 1008.4
20260505033814 10 38 8.0 11.3 0.00 0.00 0.00 52 1007.9
20260505033311 10 43 14.5 20.9 0.00 0.00 0.00 52 1008.0
20260505032810 10 69 19.3 25.7 0.00 0.00 0.00 52 1008.0
20260505032305 10 44 17.7 22.5 0.00 0.00 0.00 51 1008.0
20260505031803 10 36 19.3 27.4 0.00 0.00 0.00 50 1008.1
20260505031259 11 34 14.5 20.9 0.00 0.00 0.00 45 1007.7
20260505030756 11 45 8.0 9.7 0.00 0.00 0.00 45 1007.5
20260505030252 12 53 8.0 9.7 0.00 0.00 0.00 44 1007.6
20260505025747 12 56 6.4 8.0 0.00 0.00 0.00 44 1007.2
20260505025246 12 61 9.7 11.3 0.00 0.00 0.00 44 1007.2
20260505024744 12 51 6.4 11.3 0.00 0.00 0.00 44 1007.2
20260505024241 12 50 4.8 8.0 0.00 0.00 0.00 44 1007.1
20260505023738 12 47 6.4 9.7 0.00 0.00 0.00 44 1007.1
20260505023235 12 41 3.2 8.0 0.00 0.00 0.00 44 1007.1
20260505022732 12 47 6.4 9.7 0.00 0.00 0.00 43 1007.0
20260505022229 12 47 8.0 9.7 0.00 0.00 0.00 43 1006.9
20260505021726 12 42 9.7 11.3 0.00 0.00 0.00 43 1006.9
20260505021223 12 53 9.7 11.3 0.00 0.00 0.00 43 1006.9
20260505020719 12 50 12.9 14.5 0.00 0.00 0.00 43 1006.7
20260505020214 12 46 11.3 12.9 0.00 0.00 0.00 43 1006.7
20260505015712 12 51 9.7 11.3 0.00 0.00 0.00 42 1006.7
20260505015209 12 40 14.5 17.7 0.00 0.00 0.00 42 1006.8
20260505014705 13 58 11.3 12.9 0.00 0.00 0.00 42 1006.7
20260505014203 13 50 11.3 16.1 0.00 0.00 0.00 41 1006.3
20260505013700 13 46 14.5 17.7 0.00 0.00 0.00 41 1006.4
20260505013157 13 33 11.3 14.5 0.00 0.00 0.00 41 1006.1
20260505012655 13 55 16.1 20.9 0.00 0.00 0.00 41 1006.5
20260505012152 13 49 12.9 16.1 0.00 0.00 0.00 41 1006.5
20260505011653 13 53 12.9 22.5 0.00 0.00 0.00 41 1006.3
20260505011150 13 53 16.1 20.9 0.00 0.00 0.00 41 1006.1
20260505010645 13 53 11.3 11.3 0.00 0.00 0.00 41 1006.0
20260505010142 13 44 16.1 20.9 0.00 0.00 0.00 40 1006.1
20260505005638 14 43 12.9 14.5 0.00 0.00 0.00 40 1005.9
20260505005135 14 48 16.1 17.7 0.00 0.00 0.00 40 1006.1
20260505004632 14 58 14.5 17.7 0.00 0.00 0.00 40 1005.6
20260505004129 14 44 14.5 16.1 0.00 0.00 0.00 40 1005.6
20260505003626 15 45 12.9 16.1 0.00 0.00 0.00 40 1005.6
20260505003124 15 47 11.3 14.5 0.00 0.00 0.00 39 1005.6
20260505002620 15 43 16.1 17.7 0.00 0.00 0.00 39 1005.6
20260505002118 15 59 22.5 27.4 0.00 0.00 0.00 38 1005.4
20260505001615 15 40 16.1 17.7 0.00 0.00 0.00 38 1005.1
20260505001113 15 43 14.5 14.5 0.00 0.00 0.00 38 1005.4
20260505000609 16 42 11.3 14.5 0.00 0.00 0.00 37 1005.4
20260505000107 16 55 16.1 20.9 0.00 0.00 0.00 37 1005.4
20260504235603 16 59 9.7 12.9 0.00 0.00 0.00 37 1005.4
20260504235100 16 46 14.5 16.1 0.00 0.00 0.00 37 1005.7
20260504234557 16 44 9.7 11.3 0.00 0.00 0.00 36 1005.9
20260504234054 16 51 14.5 16.1 0.00 0.00 0.00 36 1005.7
20260504233549 16 43 17.7 22.5 0.00 0.00 0.00 35 1005.6
20260504233046 16 60 16.1 27.4 0.00 0.00 0.00 35 1005.5
20260504232544 16 32 14.5 17.7 0.00 0.00 0.00 35 1005.3
20260504232041 16 44 14.5 16.1 0.00 0.00 0.00 35 1005.4
20260504231538 16 42 11.3 14.5 0.00 0.00 0.00 35 1005.5
20260504231034 17 48 11.3 16.1 0.00 0.00 0.00 35 1005.6
20260504230530 17 57 14.5 17.7 0.00 0.00 0.00 35 1005.9
20260504230029 17 56 12.9 14.5 0.00 0.00 0.00 34 1005.5
20260504225526 17 37 11.3 14.5 0.00 0.00 0.00 34 1005.5
20260504225023 17 51 11.3 16.1 0.00 0.00 0.00 34 1005.6
20260504224519 17 43 14.5 17.7 0.00 0.00 0.00 34 1005.2
20260504224017 17 41 9.7 11.3 0.00 0.00 0.00 34 1005.4
20260504223513 17 35 16.1 20.9 0.00 0.00 0.00 34 1005.3
20260504223009 17 44 17.7 22.5 0.00 0.00 0.00 34 1004.9
20260504222506 17 42 17.7 22.5 0.00 0.00 0.00 33 1005.1
20260504222004 17 45 17.7 20.9 0.00 0.00 0.00 34 1004.7
20260504221501 17 34 14.5 16.1 0.00 0.00 0.00 33 1005.1
20260504220958 17 55 14.5 16.1 0.00 0.00 0.00 33 1005.1
20260504220454 17 38 14.5 20.9 0.00 0.00 0.00 33 1005.2
20260504215951 17 29 17.7 20.9 0.00 0.00 0.00 33 1005.1
20260504215447 17 53 14.5 17.7 0.00 0.00 0.00 32 1005.1
20260504214944 17 57 12.9 22.5 0.00 0.00 0.00 32 1005.3
20260504214441 18 35 12.9 16.1 0.00 0.00 0.00 32 1005.1
20260504213937 18 46 14.5 20.9 0.00 0.00 0.00 32 1005.2
20260504213433 18 50 19.3 22.5 0.00 0.00 0.00 32 1005.1
20260504212931 18 39 14.5 20.9 0.00 0.00 0.00 32 1005.1
20260504212426 18 55 17.7 22.5 0.00 0.00 0.00 32 1005.4
20260504211925 18 50 17.7 24.1 0.00 0.00 0.00 31 1005.1
20260504211420 18 41 17.7 24.1 0.00 0.00 0.00 31 1004.9
20260504210918 18 47 20.9 25.7 0.00 0.00 0.00 31 1005.2
20260504210415 18 39 16.1 20.9 0.00 0.00 0.00 31 1004.8
20260504205912 18 35 16.1 17.7 0.00 0.00 0.00 31 1005.1
20260504205410 18 47 19.3 24.1 0.00 0.00 0.00 30 1004.8
20260504204908 18 29 17.7 20.9 0.00 0.00 0.00 30 1004.6
20260504204406 19 31 19.3 22.5 0.00 0.00 0.00 31 1004.6
20260504203905 19 37 16.1 20.9 0.00 0.00 0.00 30 1004.8
20260504203402 18 42 14.5 20.9 0.00 0.00 0.00 31 1004.9
20260504202857 20 39 14.5 16.1 0.00 0.00 0.00 30 1004.9
20260504202355 20 54 20.9 24.1 0.00 0.00 0.00 28 1004.7
20260504201851 20 50 16.1 17.7 0.00 0.00 0.00 29 1004.9
20260504201349 20 50 17.7 22.5 0.00 0.00 0.00 30 1005.1
20260504200846 20 45 16.1 20.9 0.00 0.00 0.00 30 1004.9
20260504200343 20 29 19.3 24.1 0.00 0.00 0.00 29 1004.7
20260504195839 20 32 33.8 40.2 0.00 0.00 0.00 30 1004.5
20260504195334 20 54 20.9 24.1 0.00 0.00 0.00 29 1004.6
20260504194832 20 29 20.9 27.4 0.00 0.00 0.00 28 1004.5
20260504194327 20 33 17.7 20.9 0.00 0.00 0.00 28 1004.9
20260504193823 20 44 20.9 24.1 0.00 0.00 0.00 29 1004.9
20260504193321 21 31 27.4 32.2 0.00 0.00 0.00 28 1004.7
20260504192820 21 38 14.5 22.5 0.00 0.00 0.00 30 1004.7
20260504192317 21 34 19.3 22.5 0.00 0.00 0.00 30 1005.1
20260504191816 21 31 20.9 25.7 0.00 0.00 0.00 29 1005.1
20260504191313 20 34 32.2 37.0 0.00 0.00 0.00 30 1004.8
20260504190808 20 32 16.1 20.9 0.00 0.00 0.00 31 1004.8
20260504190304 21 27 24.1 29.0 0.00 0.00 0.00 31 1004.8
20260504185801 20 36 25.7 32.2 0.00 0.00 0.00 31 1004.6
20260504185258 20 32 24.1 27.4 0.00 0.00 0.00 32 1004.8
20260504184754 21 32 24.1 32.2 0.00 0.00 0.00 31 1004.7
20260504184250 20 33 30.6 37.0 0.00 0.00 0.00 31 1004.7
20260504183746 20 47 11.3 14.5 0.00 0.00 0.00 30 1004.6
20260504183243 22 42 12.9 17.7 0.00 0.00 0.00 28 1004.8
20260504182741 22 40 8.0 11.3 0.00 0.00 0.00 27 1004.7
20260504182238 20 51 14.5 20.9 0.00 0.00 0.00 30 1004.5
20260504181736 20 33 19.3 25.7 0.00 0.00 0.00 30 1004.5
20260504181233 22 43 16.1 17.7 0.00 0.00 0.00 28 1004.4
20260504180732 21 36 11.3 14.5 0.00 0.00 0.00 26 1004.4
20260504180231 20 39 14.5 16.1 0.00 0.00 0.00 29 1004.4
20260504175728 20 32 20.9 25.7 0.00 0.00 0.00 28 1004.0
20260504175224 21 42 16.1 22.5 0.00 0.00 0.00 27 1004.1
20260504174722 25 37 3.2 8.0 0.00 0.00 0.00 21 1004.4
20260504174220 25 64 0.0 1.6 0.00 0.00 0.00 21 1003.9
20260504173716 24 224 0.0 3.2 0.00 0.00 0.00 21 1004.0
20260504173213 22 59 0.0 0.0 0.00 0.00 0.00 22 1004.0
20260504172709 22 33 1.6 3.2 0.00 0.00 0.00 22 1003.9
20260504172206 22 111 9.7 12.9 0.00 0.00 0.00 23 1004.0
20260504171703 22 51 11.3 20.9 0.00 0.00 0.00 23 1004.0
20260504171200 21 111 0.0 0.0 0.00 0.00 0.00 23 1003.9
20260504170656 21 124 4.8 9.7 0.00 0.00 0.00 24 1003.8
20260504170154 22 136 9.7 11.3 0.00 0.00 0.00 24 1003.9
20260504160112 22 31 1.6 4.8 0.00 0.00 0.00 22 1004.3
20260504151039 20 46 0.0 0.0 0.00 0.00 0.00 29 1004.3
20260504150536 19 10 0.0 1.6 0.00 0.00 0.00 28 1004.6
20260504141002 15 335 6.4 8.0 0.00 0.00 0.00 37 1004.9
20260504140459 14 312 8.0 9.7 0.00 0.00 0.00 38 1004.9
20260504130424 7 324 8.0 9.7 0.00 0.00 0.00 51 1005.2
20260504110311 2 221 3.2 3.2 0.00 0.00 0.00 66 1004.4
20260504100228 4 245 4.8 4.8 0.00 0.00 0.00 62 1004.7
20260504081622 8 202 8.0 9.7 0.00 0.00 0.00 53 1005.5
20260504081117 7 198 4.8 4.8 0.00 0.00 0.00 56 1005.9
20260504080614 8 204 4.8 4.8 0.00 0.00 0.00 57 1005.6
20260504080111 8 178 9.7 9.7 0.00 0.00 0.00 53 1005.6